Flag for United Arab Emirates Weather past 2 weeks in Abu Dhabi, Abu Dhabi, United Arab Emirates

Now
99 °F

Passing clouds.


Feels Like: 115 °F
Forecast: 92 / 103 °F
Wind: 7 mph from North

Location: Abu Dhabi Bateen Airport

Current Time: Sep 16, 2014 at 2:14:23 PM

Latest Report: Sep 16, 2014 at 1:00 PM


Visibility: 6 mi

Pressure: 29.59 "Hg

Humidity: 50%

Dew point: 77 °F

Location of Abu DhabiLocation

Historic Weather in Abu Dhabi — Graph

°F

Abu Dhabi temperature yesterday

Maximum temperature yesterday: 99 °F (at 11:00 AM)
Minimum temperature yesterday: 88 °F (at 3:00 AM)
Average temperature yesterday: 93 °F

Past Weeks' High & Low Weather Summary

 TemperatureHumidityPressure
High111 °F (Sep 4, 2:00 PM)89% (Sep 4, 2:00 AM)29.71 "Hg (Sep 4, 2:00 AM)
Low84 °F (Sep 5, 6:00 AM)9% (Sep 4, 4:00 PM)29.45 "Hg (Sep 1, 4:00 PM)
Average94 °F61%29.57 "Hg
* Reported Sep 1 1:00 PM — Sep 16 1:00 PM, Abu Dhabi, Weather by CustomWeather, © 2014

Note: Actual official high and low records may vary slightly from our data, if they occured in-between our weather recording intervals... More about our weather records

Advertising

Abu Dhabi weather history for previous 24 hours

 ConditionsComfort  
Time TempWeatherWind HumidityBarometerVisibility
1:00 PM
Sep 16
99 °FPassing clouds.7 mph50%29.59 "Hg6 mi
12:00 PM97 °FPassing clouds.6 mph53%29.62 "Hg6 mi
11:00 AM95 °FScattered clouds.3 mph56%29.65 "Hg6 mi
10:00 AM93 °FScattered clouds.5 mph63%29.65 "Hg6 mi
9:00 AM90 °FPassing clouds.5 mph75%29.65 "Hg6 mi
8:00 AM86 °FPassing clouds.7 mph84%29.65 "Hg6 mi
7:00 AM88 °FPassing clouds.3 mph79%29.62 "Hg6 mi
6:00 AM88 °FClear.No wind79%29.59 "Hg10 mi
5:00 AM88 °FClear.No wind79%29.56 "Hg10 mi
4:00 AM88 °FClear.3 mph79%29.56 "Hg10 mi
3:00 AM88 °FClear.No wind79%29.56 "Hg10 mi
2:00 AM90 °FClear.2 mph75%29.56 "Hg10 mi
1:00 AM90 °FClear.5 mph75%29.56 "Hg10 mi
12:00 AM90 °FClear.6 mph75%29.59 "Hg10 mi
11:00 PM
Sep 15
91 °FClear.5 mph71%29.59 "Hg10 mi
10:00 PM91 °FClear.6 mph71%29.62 "Hg10 mi
9:00 PM91 °FClear.9 mph71%29.59 "Hg10 mi
8:00 PM93 °FPassing clouds.9 mph67%29.59 "HgN/A
7:00 PM93 °FClear.13 mph63%29.56 "Hg10 mi
6:00 PM95 °FSunny.13 mph63%29.56 "Hg10 mi
5:00 PM95 °FPassing clouds.13 mph60%29.56 "HgN/A
4:00 PM97 °FPassing clouds.14 mph56%29.56 "HgN/A
3:00 PM97 °FPassing clouds.13 mph50%29.56 "HgN/A
2:00 PM99 °FPassing clouds.10 mph50%29.59 "HgN/A
Weather by CustomWeather, © 2014

See weather overviewHow to use our weather pages